This is the latest recevied weather packets stored in our database for station/object R6DH-11. If no packets are shown the sender has not sent any weather packets the latest 10 day(s).
| Time | Temp. | Humidity | Pressure | Rain* | Wind** | Luminosity | Snow |
|---|---|---|---|---|---|---|---|
| 1778011309 | 10.56° C | 73% | 1012.6 hPa | - | - | - | - |
| 1778010408 | 11.11° C | 71% | 1012.6 hPa | - | - | - | - |
| 1778009513 | 11.11° C | 69% | 1012.6 hPa | - | - | - | - |
| 1778008604 | 11.67° C | 67% | 1012.7 hPa | - | - | - | - |
| 1778007703 | 11.67° C | 67% | 1012.6 hPa | - | - | - | - |
| 1778006801 | 11.67° C | 65% | 1012.5 hPa | - | - | - | - |
| 1778005900 | 11.67° C | 64% | 1012.5 hPa | - | - | - | - |
| 1778004998 | 11.67° C | 65% | 1012.7 hPa | - | - | - | - |
| 1778004097 | 12.22° C | 67% | 1012.7 hPa | - | - | - | - |
| 1778003195 | 12.22° C | 65% | 1012.6 hPa | - | - | - | - |
| 1778002293 | 12.78° C | 63% | 1012.5 hPa | - | - | - | - |
| 1778001392 | 12.22° C | 63% | 1012.4 hPa | - | - | - | - |
| 1778000490 | 12.78° C | 62% | 1012.3 hPa | - | - | - | - |
| 1777999589 | 12.78° C | 65% | 1012.2 hPa | - | - | - | - |
| 1777998687 | 12.78° C | 64% | 1012.1 hPa | - | - | - | - |
| 1777997793 | 13.33° C | 59% | 1012 hPa | - | - | - | - |
| 1777996884 | 13.33° C | 57% | 1011.9 hPa | - | - | - | - |
| 1777995983 | 13.89° C | 56% | 1011.8 hPa | - | - | - | - |
| 1777995081 | 13.89° C | 54% | 1011.8 hPa | - | - | - | - |
| 1777994179 | 14.44° C | 55% | 1011.8 hPa | - | - | - | - |
| 1777993314 | 14.44° C | 54% | 1011.7 hPa | - | - | - | - |
| 1777992412 | 14.44° C | 52% | 1011.8 hPa | - | - | - | - |
| 1777991510 | 15° C | 46% | 1011.7 hPa | - | - | - | - |
| 1777990609 | 15.56° C | 51% | 1011.7 hPa | - | - | - | - |
| 1777989715 | 15.56° C | 50% | 1011.7 hPa | - | - | - | - |
* Rain since midnight (hover to see other rain measurements)
** Current wind speed in m/s (hover to see current wind gust speed)